OpenBCM V1.08-5-g2f4a (Linux)

Packet Radio Mailbox

IZ3LSV

[San Dona' di P. JN]

 Login: GUEST





  
I0OJJ  > KEPS     13.04.25 02:25l 352 Lines 16783 Bytes #24 (0) @ AMSAT
BID : ORB25103.1
Read: GUEST
Subj: 2Line Orbital Elements 25103.AMSAT
Path: IZ3LSV<I0OJJ
Sent: 250413/0025z @:I0OJJ.ITA.EU [Rome] obcm1.08-6-g5b69
From: I0OJJ @ I0OJJ.ITA.EU (Gustavo)
To:   KEPS @ AMSAT
X-Info: This message was generated automatically


QST de W1STR

AMSAT Orbital Elements for Amateur Satellites in TLE Format
From Orbital Analysis Office
New England Sci-Tech STEM Education Center
Natick, MA April 13, 2025
To all radio amateurs


These element sets describe the orbits of various satellites 
in use by the amateur radio community. For details see:
www.amsat.org/keplerian-elements-formats/

A daily update of element sets is available at:
www.amsat.org/tle/daily-bulletin.txt
or without bulletin text:
www.amsat.org/tle/dailytle.txt


AO-07
1 07530U 74089B   25102.49331382 -.00000033  00000-0  82897-4 0  9991
2 07530 101.9950 106.1358 0011914 231.9070 281.8646 12.53688261306549
UO-11
1 14781U 84021B   25102.34936907  .00002947  00000-0  31779-3 0  9999
2 14781  97.7491  69.8982 0008291 157.4176 202.7408 14.89140737192978
AO-27
1 22825U 93061C   25102.45447726  .00000307  00000-0  13446-3 0  9998
2 22825  98.7421 163.7058 0007272 284.8404  75.1973 14.30772990645403
FO-29
1 24278U 96046B   25102.26989375  .00000040  00000-0  74398-4 0  9996
2 24278  98.5820   3.8240 0350659 133.5514 229.5322 13.53243443414886
NOAA-15
1 25338U 98030A   25102.82311881  .00000404  00000-0  18381-3 0  9995
2 25338  98.5409 129.3303 0010702 162.2760 197.8796 14.26939897400169
GO-32
1 25397U 98043D   25102.38515847  .00000252  00000-0  12927-3 0  9994
2 25397  98.9666  80.3036 0001961  49.2183 310.9165 14.24293775390007
ISS
1 25544U 98067A   25102.87391867  .00016870  00000-0  30832-3 0  9990
2 25544  51.6360 270.5243 0005071  34.6515 325.4803 15.49489682505037
NO-44
1 26931U 01043C   25102.17548631  .00000511  00000-0  22249-3 0  9993
2 26931  67.0497 278.8412 0005568 269.9799  90.0665 14.31692843228743
SO-50
1 27607U 02058C   25102.16428043  .00003872  00000-0  50157-3 0  9996
2 27607  64.5566  20.8237 0049409 347.9896  12.0027 14.81399926200578
CO-55
1 27844U 03031E   25102.00770160  .00000832  00000-0  38192-3 0  9992
2 27844  98.6786 111.0330 0009665   5.3855 354.7426 14.23932847130303
CO-57
1 27848U 03031J   25101.99920723  .00000701  00000-0  32881-3 0  9999
2 27848  98.6812 111.0742 0009916  22.1196 338.0408 14.23276421130032
RS-22
1 27939U 03042A   25102.84807125  .00003146  00000-0  50735-3 0  9991
2 27939  98.3227 270.9263 0011460 187.2506 309.3365 14.72143485152335
NOAA-18
1 28654U 05018A   25102.79384662  .00000422  00000-0  24693-3 0  9999
2 28654  98.8430 182.9182 0013066 294.7141  65.2672 14.13573233 25584
CO-58
1 28895U 05043F   25102.62785448  .00004458  00000-0  73803-3 0  9993
2 28895  98.2401 246.2924 0015738 129.1325 231.1283 14.70723976 38427
CO-65
1 32785U 08021C   25102.52728797  .00011870  00000-0  87068-3 0  9992
2 32785  97.7809  73.3075 0011438  54.5828 305.6464 15.03602763920351
AAUSAT2
1 32788U 08021F   25102.43326485  .00311660  00000-0  26304-2 0  9998
2 32788  97.6011  97.8423 0008594 133.7963 226.4010 15.68797063924221
CO-66
1 32791U 08021J   25102.36310943  .00025488  00000-0  12959-2 0  9997
2 32791  97.7248  81.1912 0005201  41.7149 318.4480 15.16827356921663
RS-30
1 32953U 08025A   25102.85938245  .00000037  00000-0  19166-3 0  9997
2 32953  82.4987 263.0768 0019839 169.3852 190.7651 12.43162266766368
NOAA-19
1 33591U 09005A   25102.86167266  .00000390  00000-0  23189-3 0  9995
2 33591  99.0017 167.2316 0014237 163.1203 197.0445 14.13338278833956
SRMSAT
1 37841U 11058D   25102.47684488  .00000633  00000-0  20008-3 0  9992
2 37841  19.9705 146.1480 0011833 144.9228 243.4037 14.11409348696892
ZACUBE-1
1 39417U 13066B   25102.60881073  .00009750  00000-0  85925-3 0  9996
2 39417  97.7746  59.9769 0043025 244.7347 114.9412 14.95937143616243
Delfi-N3xt
1 39428U 13066N   25102.52445211  .00012893  00000-0  13388-2 0  9994
2 39428  97.8369  20.8681 0085830 190.3034 169.6426 14.87334685610447
GOMX-1
1 39430U 13066Q   25102.87101640  .00004368  00000-0  68379-3 0  9999
2 39430  97.6912 325.0627 0133626  17.7819 342.7997 14.67350713606947
LO-74
1 39440U 13066AA  25102.57598769  .00010930  00000-0  11163-2 0  9999
2 39440  97.8455  47.5763 0063410  13.2653 347.0213 14.89271759612806
AO-73
1 39444U 13066AE  25102.64881289  .00014411  00000-0  11067-2 0  9994
2 39444  97.7692  64.4146 0040118 220.7558 139.0663 15.01219426615487
DTUSAT-2
1 40030U 14033W   25102.35645858  .00013777  00000-0  91826-3 0  9996
2 40030  98.0509  71.4201 0007003 253.0720 106.9738 15.07189342587626
EO-80
1 40032U 14033Y   25102.84431792  .00015563  00000-0  10338-2 0  9995
2 40032  98.0401  71.6652 0008274 180.3472 179.7750 15.07276245588192
LILACSAT-2
1 40908U 15049K   25102.77646569  .00020721  00000-0  56857-3 0  9996
2 40908  97.5107 121.7766 0009782  21.2814 338.8835 15.37246151529342
IO-86
1 40931U 15052B   25038.81889873  .00001817  00000-0  15548-3 0  9993
2 40931   6.0001 108.1159 0012838 187.7041 172.2889 14.78568669506492
Horyu-4
1 41340U 16012D   25102.49496707  .00035494  00000-0  10480-2 0  9998
2 41340  30.9956 161.7322 0008743 172.9468 187.1301 15.33718771503852
Lapan A3
1 41603U 16040E   25102.86761016  .00006627  00000-0  23502-3 0  9996
2 41603  97.1386 109.7547 0013069 112.0237 248.2394 15.29315596488961
CAS-2T
1 41847U 16066G   25102.45214271  .00002216  00000-0  32425-3 0  9999
2 41847  98.4223 177.4147 0346550 354.5539   5.1921 14.43316722442632
CAS-4B
1 42759U 17034B   25102.83010579  .00090531  00000-0  12733-2 0  9991
2 42759  43.0088 304.1721 0019663 250.0511 109.8233 15.55448904433583
CAS-4A
1 42761U 17034D   25102.83744052  .00098681  00000-0  13443-2 0  9997
2 42761  43.0124 301.7917 0021087 254.5534 105.2999 15.56238451433601
TechnoSat
1 42829U 17042E   25102.73290842  .00007309  00000-0  57196-3 0  9994
2 42829  97.3918 274.2104 0015134 113.0407 247.2415 15.01226230422043
AO-91
1 43017U 17073E   25102.38703667  .00018153  00000-0  94569-3 0  9997
2 43017  97.5341 334.6451 0176218   5.2044 355.0959 15.03527573400460
S-Net D
1 43186U 18014G   25102.44027324  .00009961  00000-0  59831-3 0  9996
2 43186  97.5681   5.9550 0011211  69.5619 290.6814 15.11045209393593
S-Net B
1 43187U 18014H   25102.31250222  .00009401  00000-0  56512-3 0  9990
2 43187  97.5689   5.7975 0011911  65.8285 294.4188 15.11024493393572
S-Net A
1 43188U 18014J   25102.44085953  .00009835  00000-0  59064-3 0  9998
2 43188  97.5693   6.0670 0011745  66.0378 294.2080 15.11049923393591
S-Net C
1 43189U 18014K   25102.44722551  .00010272  00000-0  61684-3 0  9999
2 43189  97.5711   6.0775 0013205  59.0782 301.1744 15.11024865392146
Ten-Koh
1 43677U 18084G   25102.44290491  .00005525  00000-0  44665-3 0  9996
2 43677  98.0936 272.3850 0009905 112.5124 247.7148 15.00194518351523
PO-101
1 43678U 18084H   25102.81648662  .00005771  00000-0  49403-3 0  9993
2 43678  98.0987 276.7580 0009656 118.8930 241.3261 14.97959083351735
QO-100
1 43700U 18090A   25102.82616395  .00000149  00000-0  00000+0 0  9995
2 43700   0.0178 131.2678 0001838 287.7347 105.4829  1.00273910 23601
MinXSS-2
1 43758U 18099A   25102.44612839  .00028894  00000-0  12098-2 0  9994
2 43758  97.5071 168.3680 0011454   7.2630 352.8770 15.23450247348115
AO-95
1 43770U 18099N   25102.58921661  .00017160  00000-0  89717-3 0  9996
2 43770  97.4972 161.3493 0011848  60.7380 299.5036 15.15874397347765
RANGE-A
1 43773U 18099R   25102.10601462  .00008649  00000-0  55927-3 0  9999
2 43773  97.4541 152.2084 0012222  40.5990 319.6148 15.08373756347409
MOVE-II
1 43780U 18099Y   25102.67504899  .00159348  00000-0  22944-2 0  9990
2 43780  97.4710 174.8281 0001579 270.0294  90.0779 15.55479269348740
SNUSat 2
1 43782U 18099AA  25102.64824322  .00015251  00000-0  85389-3 0  9992
2 43782  97.4657 158.6209 0011702   1.6686 358.4583 15.13464741347739
SnugLite
1 43784U 18099AC  25102.43357167  .00018721  00000-0  97155-3 0  9998
2 43784  97.4475 157.8632 0003281  25.1424 334.9968 15.16173010347829
ITASat 1
1 43786U 18099AE  25102.65877047  .00012688  00000-0  74042-3 0  9994
2 43786  97.4624 158.3044 0015570  52.1976 308.0661 15.11974482347702
EAGLET 1
1 43790U 18099AJ  25102.38714911  .00008113  00000-0  52439-3 0  9993
2 43790  97.4822 158.1752 0012792  36.4418 323.7678 15.08405426347299
ESEO
1 43792U 18099AL  25102.59465791  .00003714  00000-0  28489-3 0  9997
2 43792  97.4562 152.4024 0011947  14.7984 345.3589 15.02335906347110
CSIM
1 43793U 18099AM  25102.45478518  .00150713  00000-0  21515-2 0  9998
2 43793  97.4894 176.7539 0004417 294.3483  65.7310 15.55737524348557
JO-97
1 43803U 18099AX  25102.06356125  .00021673  00000-0  10326-2 0  9996
2 43803  97.4723 161.7108 0006822   0.5606 359.5635 15.19120071347884
Suomi 100
1 43804U 18099AY  25102.64813244  .00019567  00000-0  99013-3 0  9991
2 43804  97.4786 161.7389 0011900 356.1256   3.9883 15.16996754347914
ISAT
1 43879U 18111D   25102.49898783  .00035402  00000-0  13286-2 0  9995
2 43879  97.5999  15.7128 0011452  53.2724 306.9564 15.27069741344827
UWE-4
1 43880U 18111E   25102.27158448  .00026547  00000-0  11037-2 0  9992
2 43880  97.5941  14.3416 0014826  61.0581 299.2140 15.23666311344744
Sparrow
1 43881U 18111F   25102.19729751  .00036808  00000-0  13383-2 0  9992
2 43881  97.6131  18.0688 0010227  86.0761 274.1647 15.28118620344864
Prox-1
1 44339U 19036A   25102.60628706  .00021147  00000-0  27974-2 0  9993
2 44339  23.9966  82.2084 0007503 133.8015 226.3103 14.78416169309512
SONATE
1 44400U 19038Q   25102.32199223  .00159808  00000-0  12157-2 0  9993
2 44400  97.7002 122.4068 0010151 110.6797 249.5554 15.71733738320364
Taurus 1
1 44530U 19059C   25102.82480199  .00016628  00000-0  31187-2 0  9996
2 44530  98.5991 239.5394 0010502 208.3469 151.7162 14.64780957295486
